Location: Cedar Brake
(32.2526°N, 97.8459°W)
Time: 19:25:14
(UTC+00:00)

Cosmos 1400 Rocket - Pass Details

Date: 22 April 2026
Orbit: 474 x 505 km, 81.1° (Epoch: 21 May)

Event Time Altitude Azimuth Distance (km) Brightness Sun altitude
Rises 02:29:27 0° 197° (SSW) 2,505 6.1 -17.4°
Reaches altitude 10° 02:31:34 10° 202° (SSW) 1,631 5.2 -17.8°
Maximum altitude 02:35:03 52° 279° (W) 595 3.3 -18.5°
Drops below altitude 10° 02:38:34 10° 357° (N) 1,647 5.6 -19.1°
Sets 02:40:43 0° 2° (N) 2,532 6.6 -19.5°
